Temperature
17 17 17 17 17 17 17 17 16 16 16 16 16 16 15 15 15 15 15 15 15 15 15 15 15 14 14 14 14 14 14 14 13 13 13 13 13 13
17 17 17 17 17 17 16 16 16 16 16 16 15 15 15 15 15 15 15 15 15 14 14 14 14 14 14 14 14 13 13 13 13 13 13 13 13 12
17 17 17 17 16 16 16 16 16 16 16 15 15 15 15 15 15 14 14 14 14 14 14 14 14 14 14 13 13 13 13 13 13 12 12 12 12 12
17 17 17 16 16 16 16 16 16 15 15 15 15 14 14 14 14 14 14 14 14 14 13 13 13 13 13 13 13 13 12 12 12 12 12 12 12 11
17 16 16 16 16 16 16 15 15 15 15 15 15 14 14 14 14 14 13 13 13 13 13 13 13 12 12 12 12 12 12 12 12 12 11 11 11 11
16 16 16 16 16 16 15 15 15 15 15 14 14 14 14 13 13 13 13 13 13 12 12 12 12 12 12 12 12 12 11 11 11 11 11 11 11 10
16 16 16 16 16 15 15 15 15 14 14 14 14 13 13 13 13 13 13 12 12 12 12 12 12 11 11 11 11 11 11 11 11 10 10 10 10 10
16 16 15 15 15 15 15 15 14 14 14 14 14 13 13 13 13 13 13 12 12 12 11 11 11 11 11 11 10 10 10 10 10 10 10 9 9 9
16 15 15 15 15 15 15 14 14 14 14 14 14 13 13 13 13 12 12 12 12 12 11 11 11 10 10 10 10 10 9 9 9 9 9 9 9 9
15 15 15 15 15 15 14 14 14 14 14 13 13 13 13 13 12 12 12 12 11 11 11 10 10 10 10 10 9 9 9 9 9 9 9 8 8 8
15 15 15 14 14 14 14 14 14 13 13 13 12 12 12 12 12 12 11 11 11 11 10 10 10 10 9 9 9 9 8 8 8 8 8 8 8 8
15 14 14 14 14 14 13 13 13 13 13 12 12 12 12 12 11 11 11 11 11 10 10 10 10 9 9 9 8 8 8 8 8 8 8 7 7 7
14 14 14 14 13 13 13 13 13 12 12 12 12 12 11 11 11 11 10 10 10 10 10 10 9 9 9 9 8 8 8 8 8 7 7 7 7 7
14 14 13 13 13 13 13 12 12 12 12 11 11 11 11 11 11 10 10 10 10 10 9 9 9 9 9 9 8 8 8 8 7 7 7 7 7 7
13 13 13 13 12 12 12 12 12 12 11 11 11 11 11 11 10 10 10 10 9 9 9 9 9 9 8 8 8 8 8 8 7 7 7 7 7 7
13 13 12 12 12 12 12 11 11 11 11 11 11 10 10 10 10 10 10 10 9 9 9 9 8 8 8 8 8 8 8 8 7 7 7 7 7 7
12 12 12 12 12 11 11 11 11 11 10 10 10 10 10 10 10 10 9 9 9 9 9 9 8 8 8 8 8 8 8 7 7 7 7 7 7 7
12 12 12 11 11 11 11 11 10 10 10 10 10 10 9 9 9 9 9 9 9 8 8 8 8 8 8 8 8 7 7 7 7 7 7 7 7 7
11 11 11 11 11 10 10 10 10 10 10 9 9 9 9 9 9 9 8 8 8 8 8 8 8 7 7 7 8 7 7 7 7 7 7 7 7 7
11 11 11 11 10 10 10 10 9 9 9 9 9 9 9 9 8 8 8 8 8 8 8 8 8 7 7 7 7 7 7 7 7 7 7 7 7 7
11 10 10 10 10 10 10 9 9 9 9 9 8 8 8 8 8 8 8 8 7 7 7 7 7 7 7 7 7 7 7 7 7 7 7 7 7 7
10 10 10 10 10 9 9 9 9 9 8 8 8 8 8 8 8 7 7 7 7 7 7 7 7 7 7 7 7 7 7 7 7 7 7 7 6 6
10 10 9 9 9 9 9 8 8 8 8 8 8 8 7 7 7 7 7 7 7 7 7 7 7 7 7 7 6 6 6 6 7 6 7 7 7 7
Wind_Speed
3 2 2 2 3 3 4 4 4 3 3 2 1 0 2 3 3 3 3 4 4 4 3 4 4 4 3 3 3 4 5 6 6 7 7 7 8 8
2 2 2 2 1 2 3 3 3 4 3 2 2 1 2 2 3 5 5 5 5 5 4 5 4 4 4 4 4 4 4 5 6 6 6 6 6 7
1 1 1 1 1 1 2 2 2 3 3 1 1 1 1 2 4 5 5 5 5 6 6 6 5 5 5 5 5 5 5 5 5 5 5 6 6 7
1 1 1 1 1 1 1 2 2 2 3 3 1 1 1 3 3 3 4 4 5 6 7 6 6 6 6 6 6 6 6 6 6 6 6 6 7 7
2 2 2 1 1 1 1 1 1 2 2 3 2 1 1 2 3 3 3 3 4 5 6 6 6 7 7 7 8 8 8 7 7 7 7 6 6 6
2 2 2 2 2 2 2 2 2 3 3 3 3 1 1 2 2 2 2 1 1 2 4 5 6 6 6 6 7 7 7 8 8 8 8 7 7 7
1 1 2 2 3 3 3 3 4 3 3 3 3 2 2 2 3 2 2 2 1 1 2 2 3 3 3 4 5 6 8 8 9 9 8 8 8 7
2 1 1 2 2 4 4 4 5 5 5 4 3 4 3 3 3 3 3 3 1 1 2 1 2 1 1 3 4 6 7 8 8 8 7 7 7 7
3 2 1 1 2 3 3 4 3 3 5 6 5 5 5 5 5 4 4 3 2 3 3 1 0 1 2 3 4 6 7 7 7 6 6 6 6 5
2 3 3 2 2 3 3 3 2 1 2 3 4 4 4 5 6 5 5 3 2 1 3 2 1 1 2 3 5 6 7 7 7 6 5 5 5 5
1 2 3 3 3 5 4 3 2 0 1 2 3 3 5 7 8 5 4 4 1 2 2 2 2 1 1 2 5 7 7 7 7 7 6 6 5 4
1 1 1 3 3 5 4 4 3 2 1 2 2 2 3 6 8 6 6 5 2 2 3 3 3 2 1 2 3 6 6 7 8 8 8 7 6 5
2 1 1 3 4 4 4 3 4 3 2 2 1 1 1 2 3 4 4 4 4 3 4 4 3 3 3 2 2 5 7 7 7 8 9 9 9 8
3 2 2 3 3 3 3 4 5 4 2 2 1 1 2 2 3 4 5 5 5 5 7 7 4 4 4 2 2 2 4 7 7 7 8 9 9 10
3 5 4 4 3 2 3 4 4 3 2 2 2 3 3 3 2 1 2 2 2 3 6 7 4 4 4 4 3 3 3 4 7 6 6 7 7 7
3 3 3 2 2 1 1 1 2 3 3 3 3 2 1 1 2 2 2 2 1 2 3 6 7 5 4 4 4 4 4 4 4 6 6 6 9 11
4 2 1 1 1 0 1 1 1 1 2 2 2 2 1 2 2 2 2 2 3 3 3 2 4 5 4 4 3 4 4 4 4 5 5 6 7 11
5 2 2 2 3 2 2 2 1 2 3 2 2 3 3 3 3 2 2 3 4 4 4 3 2 1 1 3 7 6 5 5 5 5 5 5 7 8
3 3 3 3 3 2 2 2 2 2 2 2 3 3 3 3 2 3 3 3 4 4 4 4 3 4 4 5 5 8 6 5 4 4 5 6 7 8
3 3 3 3 2 2 2 2 2 1 1 1 2 2 3 3 3 3 3 4 4 4 4 3 5 6 7 6 4 4 9 6 5 5 5 5 5 7
3 2 2 2 2 2 2 2 2 2 2 2 2 3 3 3 3 4 4 5 5 4 5 6 7 7 4 2 2 4 5 10 10 6 5 4 4 3
2 2 2 2 1 1 1 1 1 2 2 2 2 3 3 3 4 5 4 4 5 5 6 5 3 2 3 5 6 6 5 5 8 12 12 10 6 6
2 2 1 1 1 1 1 1 1 1 1 2 2 2 2 2 3 3 4 4 4 4 4 4 2 2 4 5 6 5 6 5 3 3 6 14 18 18
Wind_Direction
215 215 221 228 209 199 184 177 176 200 230 229 232 217 124 128 148 139 131 132 127 134 140 143 157 173 175 184 182 173 177 186 194 198 198 197 193 190
207 201 219 225 216 193 189 187 184 179 200 216 208 215 140 119 122 116 112 110 109 107 105 114 126 132 137 138 138 145 157 169 176 181 182 182 181 182
222 186 235 225 197 193 170 168 173 163 179 212 189 154 114 117 99 97 94 94 94 100 103 104 112 119 123 124 125 127 127 132 140 151 161 167 169 169
227 186 238 219 188 165 162 172 171 162 160 177 168 143 115 131 124 111 99 92 96 98 103 104 104 109 116 120 120 119 121 123 132 142 147 153 160 163
191 185 199 159 189 197 159 155 151 144 135 154 165 138 110 128 113 99 99 88 98 105 103 102 101 102 106 111 115 117 117 120 124 130 134 139 146 153
173 170 174 174 190 184 156 143 136 125 125 137 143 132 116 123 126 135 119 82 92 103 98 98 98 97 97 109 115 120 124 126 124 123 123 123 128 135
153 160 169 156 157 158 158 152 143 141 141 144 151 144 150 158 174 168 151 121 66 79 83 85 97 94 102 107 119 127 129 127 123 123 124 125 126 128
149 133 127 105 121 125 128 136 148 157 167 166 173 175 188 184 167 162 150 137 183 215 130 98 115 85 136 145 139 141 141 139 136 133 128 126 125 127
161 163 154 126 125 124 120 115 118 144 163 169 178 189 186 187 172 168 171 168 183 179 145 162 135 156 200 181 167 165 161 158 155 153 150 147 146 145
156 168 164 160 152 143 130 113 105 104 160 168 182 192 187 182 179 174 168 143 101 129 140 161 190 202 210 209 198 190 183 176 175 177 178 178 176 174
110 131 157 170 173 149 142 140 130 94 88 123 152 167 167 164 161 141 141 140 162 210 175 155 176 184 226 241 213 205 207 204 202 204 205 205 206 206
91 88 150 172 168 153 152 156 164 194 132 93 76 94 142 157 163 167 167 163 157 201 198 169 168 152 211 247 219 215 220 225 222 223 224 221 214 205
170 189 217 177 157 154 156 168 182 167 144 130 111 100 115 145 175 181 176 171 174 205 191 169 167 167 181 219 235 216 212 219 223 229 232 229 222 211
188 197 200 182 164 153 158 169 157 140 127 123 133 183 203 213 215 209 201 203 202 198 186 171 170 179 174 185 232 228 217 217 214 222 229 234 232 232
179 176 175 168 158 162 177 166 154 146 152 173 204 227 232 223 204 206 218 212 224 217 190 187 176 175 177 192 205 205 211 223 215 219 225 224 224 220
150 156 156 147 122 132 154 171 171 179 183 202 218 232 228 194 193 190 194 195 211 276 246 216 201 181 189 202 196 207 199 205 212 219 222 228 228 224
142 117 112 123 143 171 229 244 224 183 200 211 208 215 224 229 225 201 191 189 204 233 249 251 221 212 206 193 206 221 215 217 215 205 208 228 235 230
139 155 179 188 195 203 208 226 231 225 221 210 209 214 217 223 233 221 203 206 222 231 231 224 195 186 293 257 219 216 220 225 220 206 201 217 242 241
143 175 193 206 212 208 208 216 232 238 224 204 208 217 220 224 224 224 219 221 232 237 232 211 194 192 219 251 255 215 209 221 211 210 213 214 233 243
182 189 196 203 211 210 207 217 233 243 224 219 223 227 222 221 226 233 233 229 234 239 241 226 211 209 215 225 234 240 219 206 209 221 227 227 243 256
194 197 199 206 209 205 208 210 214 230 236 228 239 242 235 228 235 237 237 238 234 233 237 239 236 226 214 173 240 259 244 223 216 215 215 218 238 246
172 183 193 185 177 187 196 208 229 245 251 243 252 251 244 234 240 241 237 237 237 237 243 251 245 203 187 211 236 247 256 258 242 237 226 213 204 218
175 170 168 166 177 177 181 196 224 258 273 268 267 267 259 253 252 248 248 248 249 249 250 256 250 223 223 225 236 245 251 254 251 248 251 243 239 242
Height
1541 1541 1542 1542 1542 1542 1542 1542 1543 1541 1541 1541 1541 1541 1541 1541 1541 1541 1540 1540 1540 1540 1540 1539 1540 1540 1540 1541 1542 1542 1542 1543 1543 1543 1544 1544 1545 1545
1539 1539 1539 1538 1539 1539 1539 1539 1539 1539 1538 1538 1539 1539 1539 1539 1539 1538 1538 1538 1538 1538 1538 1537 1538 1538 1538 1538 1538 1538 1539 1539 1539 1539 1540 1540 1541 1542
1536 1536 1535 1535 1535 1535 1536 1536 1536 1536 1536 1536 1536 1536 1537 1537 1537 1536 1536 1536 1536 1536 1536 1535 1535 1535 1535 1535 1535 1535 1535 1536 1536 1536 1536 1537 1538 1538
1533 1533 1533 1532 1532 1532 1532 1532 1533 1533 1533 1533 1534 1534 1534 1535 1535 1535 1534 1534 1534 1534 1534 1533 1533 1533 1533 1533 1533 1533 1533 1533 1533 1534 1534 1534 1535 1535
1531 1531 1530 1530 1529 1529 1529 1529 1530 1530 1531 1531 1531 1532 1532 1532 1533 1533 1533 1533 1532 1532 1532 1532 1532 1531 1531 1531 1531 1531 1531 1531 1531 1531 1531 1532 1532 1533
1529 1528 1528 1527 1527 1527 1526 1527 1527 1528 1528 1529 1529 1529 1530 1530 1531 1530 1530 1531 1531 1531 1531 1530 1530 1530 1530 1529 1529 1529 1529 1529 1529 1529 1529 1530 1530 1531
1526 1526 1526 1525 1525 1525 1524 1524 1525 1525 1526 1526 1526 1527 1527 1528 1528 1528 1529 1529 1529 1529 1529 1529 1529 1528 1528 1528 1528 1528 1528 1528 1528 1528 1528 1528 1528 1529
1524 1524 1524 1524 1523 1523 1523 1523 1523 1523 1523 1524 1524 1524 1525 1525 1526 1526 1526 1526 1526 1528 1527 1527 1527 1527 1527 1527 1527 1527 1527 1527 1527 1527 1527 1527 1528 1528
1522 1523 1523 1523 1523 1522 1522 1522 1521 1521 1522 1522 1522 1522 1522 1523 1523 1524 1524 1524 1524 1525 1526 1525 1526 1526 1526 1526 1526 1526 1526 1526 1526 1526 1527 1527 1527 1527
1521 1521 1522 1522 1521 1521 1521 1520 1520 1520 1520 1520 1520 1520 1521 1521 1521 1522 1522 1523 1523 1524 1524 1524 1524 1524 1524 1524 1525 1525 1525 1525 1525 1525 1525 1526 1526 1526
1519 1519 1520 1520 1520 1519 1519 1519 1518 1518 1518 1518 1518 1518 1519 1519 1520 1520 1520 1520 1520 1521 1522 1522 1522 1522 1523 1523 1523 1523 1523 1523 1524 1524 1524 1524 1525 1525
1518 1518 1518 1518 1518 1517 1517 1517 1516 1516 1516 1516 1516 1517 1517 1517 1517 1518 1518 1518 1518 1519 1519 1520 1519 1520 1520 1520 1521 1521 1521 1521 1522 1522 1522 1523 1523 1524
1515 1515 1516 1516 1516 1515 1515 1515 1515 1515 1515 1515 1514 1514 1515 1515 1515 1516 1516 1516 1516 1516 1517 1517 1517 1517 1518 1517 1518 1518 1519 1519 1519 1519 1520 1520 1521 1521
1513 1514 1514 1514 1513 1513 1513 1513 1513 1513 1513 1513 1513 1512 1513 1513 1513 1513 1514 1514 1514 1514 1514 1515 1514 1514 1514 1514 1515 1515 1515 1516 1516 1517 1517 1518 1518 1519
1511 1511 1511 1511 1511 1511 1511 1511 1511 1511 1511 1511 1510 1510 1510 1511 1511 1511 1511 1511 1511 1511 1511 1511 1512 1511 1512 1511 1511 1512 1512 1512 1513 1514 1514 1515 1515 1516
1508 1508 1509 1509 1509 1509 1509 1508 1508 1508 1508 1508 1508 1508 1508 1508 1508 1508 1508 1508 1508 1508 1508 1508 1508 1508 1508 1508 1508 1508 1508 1509 1509 1510 1510 1511 1512 1512
1505 1506 1506 1506 1506 1506 1506 1506 1506 1505 1505 1505 1505 1505 1505 1505 1505 1505 1505 1505 1505 1504 1504 1505 1505 1505 1505 1505 1505 1505 1505 1505 1505 1506 1506 1507 1508 1508
1503 1503 1503 1503 1503 1503 1503 1503 1503 1503 1502 1502 1502 1502 1502 1501 1501 1501 1501 1501 1501 1501 1501 1501 1501 1501 1501 1501 1501 1501 1501 1501 1501 1502 1502 1502 1503 1504
1500 1500 1500 1500 1500 1500 1500 1500 1500 1500 1499 1499 1499 1499 1499 1498 1498 1498 1498 1498 1497 1497 1497 1497 1497 1496 1496 1496 1496 1497 1497 1497 1497 1498 1498 1498 1498 1499
1496 1497 1497 1497 1497 1497 1497 1497 1497 1497 1496 1496 1496 1496 1495 1495 1495 1494 1494 1494 1494 1493 1493 1493 1492 1492 1491 1492 1492 1492 1493 1493 1493 1493 1493 1494 1494 1494
1493 1494 1494 1494 1494 1494 1494 1494 1493 1493 1493 1493 1492 1492 1492 1491 1491 1490 1490 1490 1490 1489 1488 1488 1488 1488 1488 1488 1488 1487 1488 1489 1488 1489 1489 1489 1488 1488
1490 1491 1491 1491 1491 1491 1491 1490 1490 1490 1490 1489 1488 1488 1488 1487 1486 1486 1486 1486 1485 1485 1484 1484 1484 1484 1484 1483 1482 1482 1483 1483 1484 1484 1484 1484 1483 1483
1488 1488 1488 1487 1488 1488 1487 1487 1487 1486 1486 1485 1485 1484 1484 1483 1483 1482 1482 1481 1481 1480 1480 1480 1479 1479 1478 1478 1478 1478 1478 1478 1478 1478 1478 1479 1479 1479